sat.trackr.live / text

‹ back to catalog

STARLINK-11710 [DTC]

NORAD 64244 · 2025-119M

PAYLOAD ACTIVE UNKNOWN

§ Identity

Operator
Country
US
Launch date
2025-06-03
Launch site
AFETR
Launch vehicle
Mass (kg)
RCS (m²)

Purposes: comms

External: N2YO · Heavens-Above · Gunter

§ Orbital elements

Epoch: 2026-09-20T23:04:59.254752Z

Period
91.66 min
Inclination
42.9996°
Eccentricity
0.0005149
Mean motion
15.70961508 rev/d
Perigee alt
352.7 km
Apogee alt
359.6 km
Semi-major
6,734.3 km
B*
1.1488e-3
RAAN
112.2835°
Arg perigee
256.4317°
Mean anomaly
103.5977°
Rev number
7,595

§ Raw data

STARLINK-11710 [DTC]1 64244U 25119M   26263.96179693  .00150501  00000+0  11488-2 0  99922 64244  42.9996 112.2835 0005149 256.4317 103.5977 15.70961508 75950

JSON: /api/v1/satellites/64244 · /tle

For live sub-satellite position, see the globe view (requires WebGL).

§ Visibility from observer

Set your observer location to see the next 7 days of passes ≥ 10°. The values pass through the URL so the page stays shareable.

No JS? Fill the form by hand. The geolocation button needs JavaScript.